Regional Weather Roundup
Issued by NWS Portland, ME

Current Version | Previous Version | Text Only | Print | Product List | Glossary Off
Versions: 1 2 3 4 5 6 7 8 9 10 11 12 13 14 15 16 17 18 19 20 21 22 23 24 25 26 27 28 29 30 31 32 33 34 35 36 37 38 39 40 41 42 43 44 45 46 47 48 49 50
000 ASUS41 KGYX 211810 RWRGYX WEATHER ROUNDUP FOR MAINE AND NEW HAMPSHIRE NATIONAL WEATHER SERVICE GRAY ME 200 PM EDT SAT APR 21 2018 MEZ002-005-006-010-012-015-018-020-021-024-026-027-029-211900- MAINE CITY SKY/WX TMP DP RH WIND PRES REMARKS PORTLAND FAIR 55 25 31 NW14G22 30.20F 6HR MIN TEMP: 42; 6HR MAX TEMP: 55; SANFORD FAIR 54 22 28 W13G25 30.20F BAR HARBOR CLOUDY 47 25 42 NW13 30.16S WISCASSET PTSUNNY 52 23 32 NW8 30.19F 6HR MIN TEMP: 41; 6HR MAX TEMP: 54; ROCKLAND PTSUNNY 50 24 36 NW12G18 30.17S FRYEBURG FAIR 54 23 30 NW10G23 30.19F 6HR MIN TEMP: 42; 6HR MAX TEMP: 54; LEWISTONAUBURN FAIR 51 24 34 NW18G25 30.19F AUGUSTA CLOUDY 49 22 34 NW12G22 30.18F 6HR MIN TEMP: 41; 6HR MAX TEMP: 50; WATERVILLE CLOUDY 48 24 39 NW14G20 30.15F BANGOR CLOUDY 47 23 38 NW15 30.16S 6HR MIN TEMP: 41; 6HR MAX TEMP: 48; GREENVILLE N/A 41 23 48 NW17G26 30.11S 6HR MIN TEMP: 34; 6HR MAX TEMP: 41; MILLINOCKET CLOUDY 48 22 35 NW13G23 30.13S 6HR MIN TEMP: 39; 6HR MAX TEMP: 49; HOULTON FAIR 46 21 37 N10G18 30.07S 6HR MIN TEMP: 37; 6HR MAX TEMP: 46; PRESQUE ISLE FAIR 44 18 35 N15 30.10S 6HR MIN TEMP: 36; 6HR MAX TEMP: 44; FRENCHVILLE FAIR 41 15 35 NW18G28 30.08S 6HR MIN TEMP: 34; 6HR MAX TEMP: 41; CARIBOU FAIR 42 17 36 NW17G25 30.08S 6HR MIN TEMP: 34; 6HR MAX TEMP: 42; $$ NHZ002-005-008-009-011-012-014-211900- NEW HAMPSHIRE CITY SKY/WX TMP DP RH WIND PRES REMARKS PORTSMOUTH MOSUNNY 57 20 24 NW18 30.18F ROCHESTER FAIR 56 24 29 N16G22 30.19F 6HR MIN TEMP: 42; 6HR MAX TEMP: 57; NASHUA FAIR 56 22 26 N9G22 30.22F MANCHESTER FAIR 58 16 19 NW14G24 30.20F 6HR MIN TEMP: 42; 6HR MAX TEMP: 59; CONCORD FAIR 57 19 22 NW16 30.22F 6HR MIN TEMP: 41; 6HR MAX TEMP: 57; LACONIA FAIR 52 21 29 NW7G21 30.21F PLYMOUTH FAIR 52 22 31 W10G22 30.22F BERLIN CLOUDY 48 22 35 N14G24 30.20F 6HR MIN TEMP: 38; 6HR MAX TEMP: 49; WHITEFIELD FAIR 49 21 33 NW15G23 30.21F 6HR MIN TEMP: 35; 6HR MAX TEMP: 50; JAFFREY FAIR 53 21 28 W9 30.22F 6HR MIN TEMP: 39; 6HR MAX TEMP: 54; KEENE FAIR 56 21 25 N14 30.24F LEBANON FAIR 55 21 26 NW13G21 30.24F 6HR MIN TEMP: 39; 6HR MAX TEMP: 56; MT WASHINGTON PTSUNNY 19 16 86 W46G59 N/A BLWGSNOWWCI -3 6HR MIN TEMP: 13; 6HR MAX TEMP: 19; $$ VTZ005-007-008-211900- VERMONT CITY SKY/WX TMP DP RH WIND PRES REMARKS ST JOHNSBURY N/A 49 21 33 MISG 30.23F MONTPELIER FAIR 47 22 37 NW16G25 30.28F BURLINGTON FAIR 52 20 28 N15 30.28F $$ MAZ007-012-024-CTZ003-RIZ002-NYZ038-NYZ072-211900- SOUTHERN NEW ENGLAND AND NY CITY SKY/WX TMP DP RH WIND PRES REMARKS BOSTON FAIR 56 22 26 NW13G24 30.22 WORCESTER FAIR 52 22 30 W15G24 30.22F NANTUCKET FAIR 51 24 34 N9 30.28F PROVIDENCE FAIR 57 24 28 W10G18 30.25F HARTFORD FAIR 59 22 24 NW15G22 30.26F ALBANY FAIR 56 21 25 W15 30.30F NEW YORK CITY FAIR 57 23 26 NW13G20 30.32F $$ ANZ081-ANZ082-ANZ150-NHZ014-MEZ023>029-211900- COASTAL MARINE OBSERVATIONS STATION/POSITION TIME TEMP WIND PRES WAVE AIR SEA DIR/SP/G HT/PER (UTC) (F) (DEG/KT/KT) (MB) (FT/S) MOUNT DESERT ROC 1800 43 260/ 11/ 12 1021.7S MATINICUS ROCK 1800 44 260/ 10/ 10 1021.6F ISLE OF SHOALS 1800 51 310/ 15/ 16 1022.3F JEFFREYS LEDGE 1736 43 N/A 1/ 3 CASHES LEDGE BUO 1750 45 41 1022.9F 2/ 4 $$ .............KEY.............. WCI - WIND CHILL TC - TEMPERATURE IN CELSIUS VSB - VISIBILITY IN MILES HX - HEAT INDEX FAIR- INDICATES FEW OR NO CLOUDS BELOW 12,000 FT, WITH NO SIGNIFICANT WEATHER AND/OR OBSTRUCTIONS TO VISIBILITY.

USA.gov is the U.S. government's official web portal to all federal, state and local government web resources and services.